User: anonymous   Login
Location: Rodson Ranch
(38.7188°N, 119.3202°W)
Time: 12:37:35
(UTC+00:00)
Language:

H-2A R/B - Orbit

View from above orbital plane
View from above orbital plane
View from above satellite
View from above satellite

Ground track
Ground track

The orbit data is extracted from the following two-line orbital elements,

1 36105U 09066B   21014.19556023 0.00000800  00000-0  41973-4 0    04
2 36105  97.2869  12.3996 0030197 115.5250 244.4748 15.15389542    03
Epoch (UTC): 14 January 2021 04:41:36
Eccentricity: 0.0030197
inclination: 97.2869°
perigee height: 499 km
apogee height: 540 km
right ascension of ascending node: 12.3996°
argument of perigee: 115.5250°
revolutions per day: 15.15389542
mean anomaly at epoch: 244.4748°
orbit number at epoch: 0

The dashed part of the orbit path shows where the satellite is in the earth's shadow,  

DLR